Portada
METAR-TAF:

METAR-TAF

Aeroports :

Jubail, Aràbia Saudita

latitud: 27-02-20N, longitud: 49-24-18E, altitud: 8 m

Observació

L'informe es va fer fa 8 hores i 8 minuts, a les 01:00 UTC
Vent 8 kt del Oest/Nord-Oest
Temperatura 28°C
Humitat 28%
Pressió 1006 hPa
Visibilitat 10 km o més
sense núvols per sota de 1500 mi sense presència de cumulonimbus.

METAR: OEJB 210100Z AUTO 29008KT CAVOK 28/08 Q1006 NOSIG

Hora: 12:08 (09:08 UTC)


TAF: manca

Observacions i pronòstics meteorològics de més de 4000 aeroports (METAR i TAF).

Les estacions disponibles són els punts grocs i vermells al mapa.

Posi el ratolí al punt desitjat per veure el nom de l'estació.

Feu clic per veure les observacions i els pronòstics meteorològics.

Per canviar el mapa: feu clic els botons verds amb una creu de color negre per apropar; al botó verd amb un guió per allunyar la imatge; o en les fletxes verdes per a mapes adjacents.


METAR-TAF: